Time,TemperatureF,DewpointF,PressureIn,WindDirection,WindDirectionDegrees,WindSpeedMPH,WindSpeedGustMPH,Humidity,HourlyPrecipIn,Conditions,Clouds,dailyrainin,SoftwareType,DateUTC
2013-01-13 00:02:00,28.0,15.0,-100.00,NE,54,7.0,10.0,57,-99.99,,,-99.99,,2013-01-13 08:02:00,
2013-01-13 00:11:00,28.0,16.0,-100.00,NE,48,7.0,11.0,59,-99.99,,,-99.99,,2013-01-13 08:11:00,
2013-01-13 00:22:00,27.0,15.0,-100.00,NE,52,7.0,11.0,61,-99.99,,,-99.99,,2013-01-13 08:22:00,
2013-01-13 00:32:00,27.0,17.0,-100.00,ENE,57,10.0,14.0,65,-99.99,,,-99.99,,2013-01-13 08:32:00,
2013-01-13 00:42:00,27.0,16.0,-100.00,NE,56,9.0,12.0,63,-99.99,,,-99.99,,2013-01-13 08:42:00,
2013-01-13 00:52:00,27.0,15.0,-100.00,ENE,59,8.0,13.0,61,-99.99,,,-99.99,,2013-01-13 08:52:00,
2013-01-13 01:02:00,27.0,15.0,-100.00,ENE,61,10.0,13.0,60,-99.99,,,-99.99,,2013-01-13 09:02:00,
2013-01-13 01:11:00,27.0,14.0,-100.00,ENE,62,10.0,13.0,58,-99.99,,,-99.99,,2013-01-13 09:11:00,
2013-01-13 01:22:00,27.0,14.0,-100.00,ENE,64,8.0,13.0,58,-99.99,,,-99.99,,2013-01-13 09:22:00,
2013-01-13 01:32:00,26.0,12.0,-100.00,ENE,57,9.0,11.0,56,-99.99,,,-99.99,,2013-01-13 09:32:00,
2013-01-13 01:42:00,26.0,9.0,-100.00,ENE,59,8.0,12.0,48,-99.99,,,-99.99,,2013-01-13 09:42:00,
2013-01-13 01:52:00,26.0,8.0,-100.00,ENE,59,9.0,13.0,45,-99.99,,,-99.99,,2013-01-13 09:52:00,
2013-01-13 02:02:00,26.0,7.0,-100.00,ENE,68,9.0,12.0,43,-99.99,,,-99.99,,2013-01-13 10:02:00,
2013-01-13 02:11:00,26.0,6.0,-100.00,ENE,64,10.0,13.0,42,-99.99,,,-99.99,,2013-01-13 10:11:00,
2013-01-13 02:22:00,26.0,6.0,-100.00,ENE,76,9.0,12.0,41,-99.99,,,-99.99,,2013-01-13 10:22:00,
2013-01-13 02:32:00,26.0,6.0,-100.00,ENE,72,10.0,15.0,42,-99.99,,,-99.99,,2013-01-13 10:32:00,
2013-01-13 02:42:00,26.0,8.0,-100.00,ENE,69,10.0,14.0,45,-99.99,,,-99.99,,2013-01-13 10:42:00,
2013-01-13 02:52:00,26.0,9.0,-100.00,NE,54,7.0,14.0,49,-99.99,,,-99.99,,2013-01-13 10:52:00,
2013-01-13 03:02:00,25.0,11.0,-100.00,NNE,33,5.0,8.0,55,-99.99,,,-99.99,,2013-01-13 11:02:00,
2013-01-13 03:12:00,25.0,12.0,-100.00,NNE,24,7.0,12.0,57,-99.99,,,-99.99,,2013-01-13 11:12:00,
2013-01-13 03:22:00,25.0,12.0,-100.00,NNE,31,6.0,10.0,58,-99.99,,,-99.99,,2013-01-13 11:22:00,
2013-01-13 03:32:00,25.0,12.0,-100.00,NE,50,5.0,11.0,58,-99.99,,,-99.99,,2013-01-13 11:32:00,
2013-01-13 03:42:00,25.0,12.0,-100.00,ENE,68,7.0,11.0,58,-99.99,,,-99.99,,2013-01-13 11:42:00,
2013-01-13 03:52:00,25.0,12.0,-100.00,ENE,72,8.0,14.0,58,-99.99,,,-99.99,,2013-01-13 11:52:00,
2013-01-13 04:02:00,25.0,13.0,-100.00,ENE,65,9.0,14.0,59,-99.99,,,-99.99,,2013-01-13 12:02:00,
2013-01-13 04:12:00,25.0,13.0,-100.00,ENE,71,9.0,13.0,59,-99.99,,,-99.99,,2013-01-13 12:12:00,
2013-01-13 04:22:00,25.0,13.0,-100.00,ENE,77,12.0,17.0,60,-99.99,,,-99.99,,2013-01-13 12:22:00,
2013-01-13 04:32:00,25.0,13.0,-100.00,ENE,78,14.0,18.0,60,-99.99,,,-99.99,,2013-01-13 12:32:00,
2013-01-13 04:42:00,25.0,13.0,-100.00,East,81,12.0,17.0,60,-99.99,,,-99.99,,2013-01-13 12:42:00,
2013-01-13 04:52:00,25.0,13.0,-100.00,East,79,14.0,20.0,60,-99.99,,,-99.99,,2013-01-13 12:52:00,
2013-01-13 05:02:00,25.0,13.0,-100.00,ENE,72,13.0,20.0,60,-99.99,,,-99.99,,2013-01-13 13:02:00,
2013-01-13 05:12:00,25.0,13.0,-100.00,ENE,63,11.0,17.0,60,-99.99,,,-99.99,,2013-01-13 13:12:00,
2013-01-13 05:22:00,25.0,13.0,-100.00,ENE,59,11.0,16.0,60,-99.99,,,-99.99,,2013-01-13 13:22:00,
2013-01-13 05:32:00,25.0,14.0,-100.00,ENE,62,8.0,14.0,62,-99.99,,,-99.99,,2013-01-13 13:32:00,
2013-01-13 05:42:00,25.0,14.0,-100.00,ENE,62,8.0,14.0,62,-99.99,,,-99.99,,2013-01-13 13:42:00,
2013-01-13 05:53:00,24.0,14.0,-100.00,ENE,72,6.0,12.0,65,-99.99,,,-99.99,,2013-01-13 13:53:00,
2013-01-13 06:02:00,25.0,15.0,-100.00,ENE,59,6.0,11.0,65,-99.99,,,-99.99,,2013-01-13 14:02:00,
2013-01-13 06:12:00,25.0,15.0,-100.00,ENE,62,7.0,15.0,66,-99.99,,,-99.99,,2013-01-13 14:12:00,
2013-01-13 06:22:00,25.0,16.0,-100.00,ENE,70,10.0,16.0,67,-99.99,,,-99.99,,2013-01-13 14:22:00,
2013-01-13 06:32:00,25.0,14.0,-100.00,ENE,75,12.0,18.0,62,-99.99,,,-99.99,,2013-01-13 14:32:00,
2013-01-13 06:42:00,25.0,12.0,-100.00,East,79,12.0,17.0,58,-99.99,,,-99.99,,2013-01-13 14:42:00,
2013-01-13 06:52:00,25.0,12.0,-100.00,East,80,11.0,16.0,56,-99.99,,,-99.99,,2013-01-13 14:52:00,
2013-01-13 07:02:00,25.0,12.0,-100.00,East,85,10.0,16.0,57,-99.99,,,-99.99,,2013-01-13 15:02:00,
2013-01-13 07:12:00,25.0,11.0,-100.00,East,83,10.0,16.0,55,-99.99,,,-99.99,,2013-01-13 15:12:00,
2013-01-13 07:22:00,25.0,12.0,-100.00,ENE,65,6.0,13.0,56,-99.99,,,-99.99,,2013-01-13 15:22:00,
2013-01-13 07:33:00,25.0,11.0,-100.00,ENE,62,5.0,10.0,55,-99.99,,,-99.99,,2013-01-13 15:33:00,
2013-01-13 07:42:00,25.0,9.0,-100.00,ENE,61,7.0,11.0,51,-99.99,,,-99.99,,2013-01-13 15:42:00,
2013-01-13 07:52:00,25.0,10.0,-100.00,ENE,64,7.0,11.0,52,-99.99,,,-99.99,,2013-01-13 15:52:00,
2013-01-13 08:03:00,25.0,10.0,-100.00,ENE,73,4.0,8.0,53,-99.99,,,-99.99,,2013-01-13 16:03:00,
2013-01-13 08:12:00,26.0,11.0,-100.00,ENE,59,5.0,10.0,52,-99.99,,,-99.99,,2013-01-13 16:12:00,
2013-01-13 08:22:00,27.0,12.0,-100.00,ENE,72,6.0,12.0,52,-99.99,,,-99.99,,2013-01-13 16:22:00,
2013-01-13 08:33:00,27.0,10.0,-100.00,ENE,76,8.0,12.0,49,-99.99,,,-99.99,,2013-01-13 16:33:00,
2013-01-13 08:42:00,28.0,9.0,-100.00,East,84,8.0,14.0,45,-99.99,,,-99.99,,2013-01-13 16:42:00,
2013-01-13 08:52:00,28.0,8.0,-100.00,East,85,9.0,14.0,42,-99.99,,,-99.99,,2013-01-13 16:52:00,
2013-01-13 09:02:00,29.0,9.0,-100.00,East,82,10.0,16.0,42,-99.99,,,-99.99,,2013-01-13 17:02:00,
2013-01-13 09:12:00,29.0,8.0,-100.00,East,79,10.0,16.0,41,-99.99,,,-99.99,,2013-01-13 17:12:00,
2013-01-13 09:22:00,29.0,8.0,-100.00,East,82,12.0,17.0,41,-99.99,,,-99.99,,2013-01-13 17:22:00,
2013-01-13 09:32:00,30.0,9.0,-100.00,ENE,75,10.0,16.0,41,-99.99,,,-99.99,,2013-01-13 17:32:00,
2013-01-13 09:42:00,29.0,9.0,-100.00,ENE,71,11.0,16.0,42,-99.99,,,-99.99,,2013-01-13 17:42:00,
2013-01-13 09:52:00,29.0,8.0,-100.00,ENE,76,10.0,17.0,41,-99.99,,,-99.99,,2013-01-13 17:52:00,
2013-01-13 10:02:00,30.0,8.0,-100.00,ENE,77,9.0,14.0,39,-99.99,,,-99.99,,2013-01-13 18:02:00,
2013-01-13 10:12:00,30.0,8.0,-100.00,East,81,10.0,14.0,39,-99.99,,,-99.99,,2013-01-13 18:12:00,
2013-01-13 10:22:00,31.0,9.0,-100.00,East,81,9.0,14.0,39,-99.99,,,-99.99,,2013-01-13 18:22:00,
2013-01-13 10:32:00,31.0,8.0,-100.00,ENE,75,9.0,14.0,37,-99.99,,,-99.99,,2013-01-13 18:32:00,
2013-01-13 10:42:00,31.0,8.0,-100.00,ENE,69,8.0,12.0,38,-99.99,,,-99.99,,2013-01-13 18:42:00,
2013-01-13 10:53:00,32.0,9.0,-100.00,ENE,76,7.0,13.0,37,-99.99,,,-99.99,,2013-01-13 18:53:00,
2013-01-13 11:02:00,33.0,9.0,-100.00,East,79,8.0,12.0,36,-99.99,,,-99.99,,2013-01-13 19:02:00,
2013-01-13 11:12:00,33.0,9.0,-100.00,ENE,60,6.0,11.0,36,-99.99,,,-99.99,,2013-01-13 19:12:00,
2013-01-13 11:22:00,34.0,10.0,-100.00,NE,55,5.0,8.0,36,-99.99,,,-99.99,,2013-01-13 19:22:00,
2013-01-13 11:32:00,34.0,10.0,-100.00,North,10,6.0,10.0,36,-99.99,,,-99.99,,2013-01-13 19:32:00,
2013-01-13 11:42:00,33.0,9.0,-100.00,NNE,19,5.0,11.0,36,-99.99,,,-99.99,,2013-01-13 19:42:00,
2013-01-13 11:52:00,33.0,9.0,-100.00,NE,36,4.0,9.0,36,-99.99,,,-99.99,,2013-01-13 19:52:00,
2013-01-13 12:02:00,34.0,10.0,-100.00,NE,37,5.0,9.0,36,-99.99,,,-99.99,,2013-01-13 20:02:00,
2013-01-13 12:12:00,34.0,10.0,-100.00,NE,50,5.0,13.0,36,-99.99,,,-99.99,,2013-01-13 20:12:00,
2013-01-13 12:22:00,35.0,9.0,-100.00,NE,38,3.0,9.0,34,-99.99,,,-99.99,,2013-01-13 20:22:00,
2013-01-13 12:32:00,35.0,9.0,-100.00,NNW,348,3.0,8.0,34,-99.99,,,-99.99,,2013-01-13 20:32:00,
2013-01-13 12:43:00,35.0,10.0,-100.00,NW,323,9.0,16.0,35,-99.99,,,-99.99,,2013-01-13 20:43:00,
2013-01-13 12:52:00,35.0,11.0,-100.00,WSW,254,7.0,13.0,37,-99.99,,,-99.99,,2013-01-13 20:52:00,
2013-01-13 13:02:00,35.0,12.0,-100.00,WSW,249,10.0,18.0,38,-99.99,,,-99.99,,2013-01-13 21:02:00,
2013-01-13 13:12:00,35.0,13.0,-100.00,WSW,258,8.0,17.0,39,-99.99,,,-99.99,,2013-01-13 21:12:00,
2013-01-13 13:22:00,35.0,13.0,-100.00,WSW,251,9.0,15.0,39,-99.99,,,-99.99,,2013-01-13 21:22:00,
2013-01-13 13:32:00,35.0,13.0,-100.00,WSW,256,11.0,19.0,40,-99.99,,,-99.99,,2013-01-13 21:32:00,
2013-01-13 13:42:00,35.0,13.0,-100.00,West,263,7.0,17.0,40,-99.99,,,-99.99,,2013-01-13 21:42:00,
2013-01-13 13:52:00,35.0,13.0,-100.00,West,265,10.0,16.0,39,-99.99,,,-99.99,,2013-01-13 21:52:00,
2013-01-13 14:02:00,35.0,14.0,-100.00,WSW,245,9.0,17.0,41,-99.99,,,-99.99,,2013-01-13 22:02:00,
2013-01-13 14:12:00,35.0,14.0,-100.00,WSW,258,11.0,22.0,41,-99.99,,,-99.99,,2013-01-13 22:12:00,
2013-01-13 14:22:00,35.0,14.0,-100.00,WSW,254,10.0,17.0,42,-99.99,,,-99.99,,2013-01-13 22:22:00,
2013-01-13 14:33:00,36.0,15.0,-100.00,West,259,10.0,17.0,41,-99.99,,,-99.99,,2013-01-13 22:33:00,
2013-01-13 14:42:00,36.0,15.0,-100.00,West,259,10.0,17.0,41,-99.99,,,-99.99,,2013-01-13 22:42:00,
2013-01-13 14:52:00,36.0,15.0,-100.00,WSW,253,11.0,17.0,41,-99.99,,,-99.99,,2013-01-13 22:52:00,
2013-01-13 15:02:00,36.0,15.0,-100.00,WSW,258,11.0,18.0,41,-99.99,,,-99.99,,2013-01-13 23:02:00,
2013-01-13 15:12:00,35.0,13.0,-100.00,WSW,253,11.0,18.0,39,-99.99,,,-99.99,,2013-01-13 23:12:00,
2013-01-13 15:22:00,35.0,13.0,-100.00,WSW,252,9.0,15.0,40,-99.99,,,-99.99,,2013-01-13 23:22:00,
2013-01-13 15:32:00,36.0,14.0,-100.00,WSW,242,12.0,18.0,40,-99.99,,,-99.99,,2013-01-13 23:32:00,
2013-01-13 15:42:00,35.0,14.0,-100.00,WSW,250,12.0,18.0,42,-99.99,,,-99.99,,2013-01-13 23:42:00,
2013-01-13 15:52:00,35.0,16.0,-100.00,WSW,253,13.0,19.0,45,-99.99,,,-99.99,,2013-01-13 23:52:00,
2013-01-13 16:02:00,35.0,16.0,-100.00,WSW,252,11.0,17.0,46,-99.99,,,-99.99,,2013-01-14 00:02:00,
2013-01-13 16:12:00,34.0,16.0,-100.00,WSW,258,13.0,18.0,48,-99.99,,,-99.99,,2013-01-14 00:12:00,
2013-01-13 16:22:00,34.0,17.0,-100.00,WSW,252,13.0,21.0,50,-99.99,,,-99.99,,2013-01-14 00:22:00,
2013-01-13 16:32:00,33.0,17.0,-100.00,WSW,245,10.0,19.0,52,-99.99,,,-99.99,,2013-01-14 00:32:00,
2013-01-13 16:42:00,32.0,19.0,-100.00,WSW,257,13.0,18.0,57,-99.99,,,-99.99,,2013-01-14 00:42:00,
2013-01-13 16:52:00,32.0,21.0,-100.00,WSW,258,14.0,18.0,63,-99.99,,,-99.99,,2013-01-14 00:52:00,
2013-01-13 17:02:00,32.0,22.0,-100.00,WSW,253,11.0,16.0,65,-99.99,,,-99.99,,2013-01-14 01:02:00,
2013-01-13 17:12:00,31.0,22.0,-100.00,WSW,243,11.0,17.0,69,-99.99,,,-99.99,,2013-01-14 01:12:00,
2013-01-13 17:22:00,31.0,23.0,-100.00,WSW,251,11.0,15.0,71,-99.99,,,-99.99,,2013-01-14 01:22:00,
2013-01-13 17:32:00,30.0,22.0,-100.00,West,260,13.0,16.0,73,-99.99,,,-99.99,,2013-01-14 01:32:00,
2013-01-13 17:42:00,30.0,22.0,-100.00,West,259,11.0,15.0,73,-99.99,,,-99.99,,2013-01-14 01:42:00,
2013-01-13 17:52:00,30.0,23.0,-100.00,West,270,9.0,13.0,74,-99.99,,,-99.99,,2013-01-14 01:52:00,
2013-01-13 18:02:00,30.0,23.0,-100.00,West,273,10.0,14.0,74,-99.99,,,-99.99,,2013-01-14 02:02:00,
2013-01-13 18:12:00,30.0,23.0,-100.00,West,278,7.0,14.0,75,-99.99,,,-99.99,,2013-01-14 02:12:00,
2013-01-13 18:22:00,29.0,22.0,-100.00,WNW,284,7.0,9.0,75,-99.99,,,-99.99,,2013-01-14 02:22:00,
2013-01-13 18:32:00,29.0,22.0,-100.00,WNW,286,8.0,12.0,76,-99.99,,,-99.99,,2013-01-14 02:32:00,
2013-01-13 18:42:00,29.0,23.0,-100.00,WNW,287,7.0,10.0,77,-99.99,,,-99.99,,2013-01-14 02:42:00,
2013-01-13 18:53:00,28.0,22.0,-100.00,WNW,293,6.0,8.0,78,-99.99,,,-99.99,,2013-01-14 02:53:00,
2013-01-13 19:02:00,28.0,22.0,-100.00,WNW,293,4.0,6.0,79,-99.99,,,-99.99,,2013-01-14 03:02:00,
2013-01-13 19:12:00,28.0,23.0,-100.00,WNW,298,2.0,5.0,80,-99.99,,,-99.99,,2013-01-14 03:12:00,
2013-01-13 19:22:00,28.0,23.0,-100.00,WNW,291,1.0,3.0,81,-99.99,,,-99.99,,2013-01-14 03:22:00,
2013-01-13 19:32:00,28.0,23.0,-100.00,NW,323,0.0,2.0,81,-99.99,,,-99.99,,2013-01-14 03:32:00,
2013-01-13 19:42:00,28.0,22.0,-100.00,North,1,1.0,3.0,79,-99.99,,,-99.99,,2013-01-14 03:42:00,
2013-01-13 19:52:00,28.0,22.0,-100.00,NNW,345,3.0,5.0,78,-99.99,,,-99.99,,2013-01-14 03:52:00,
2013-01-13 20:02:00,28.0,22.0,-100.00,North,2,3.0,5.0,77,-99.99,,,-99.99,,2013-01-14 04:02:00,
2013-01-13 20:12:00,28.0,21.0,-100.00,North,360,3.0,5.0,76,-99.99,,,-99.99,,2013-01-14 04:12:00,
2013-01-13 20:22:00,28.0,21.0,-100.00,NNW,339,4.0,6.0,74,-99.99,,,-99.99,,2013-01-14 04:22:00,
2013-01-13 20:32:00,28.0,20.0,-100.00,North,3,4.0,6.0,73,-99.99,,,-99.99,,2013-01-14 04:32:00,
2013-01-13 20:42:00,28.0,22.0,-100.00,NE,35,4.0,5.0,77,-99.99,,,-99.99,,2013-01-14 04:42:00,
2013-01-13 20:52:00,28.0,20.0,-100.00,North,355,2.0,4.0,72,-99.99,,,-99.99,,2013-01-14 04:52:00,
2013-01-13 21:03:00,27.0,21.0,-100.00,NNW,327,0.0,2.0,77,-99.99,,,-99.99,,2013-01-14 05:03:00,
2013-01-13 21:12:00,27.0,20.0,-100.00,North,358,2.0,4.0,75,-99.99,,,-99.99,,2013-01-14 05:12:00,
2013-01-13 21:22:00,28.0,20.0,-100.00,NNE,23,4.0,6.0,70,-99.99,,,-99.99,,2013-01-14 05:22:00,
2013-01-13 21:32:00,28.0,18.0,-100.00,NNE,31,4.0,6.0,67,-99.99,,,-99.99,,2013-01-14 05:32:00,
2013-01-13 21:42:00,27.0,18.0,-100.00,NNE,32,6.0,8.0,67,-99.99,,,-99.99,,2013-01-14 05:42:00,
2013-01-13 21:52:00,27.0,16.0,-100.00,NE,36,6.0,9.0,62,-99.99,,,-99.99,,2013-01-14 05:52:00,
2013-01-13 22:02:00,27.0,10.0,-100.00,ENE,57,5.0,9.0,49,-99.99,,,-99.99,,2013-01-14 06:02:00,
2013-01-13 22:11:00,26.0,14.0,-100.00,East,80,3.0,5.0,59,-99.99,,,-99.99,,2013-01-14 06:11:00,
2013-01-13 22:22:00,26.0,10.0,-100.00,NE,45,1.0,3.0,50,-99.99,,,-99.99,,2013-01-14 06:22:00,
2013-01-13 22:32:00,26.0,9.0,-100.00,ESE,122,2.0,3.0,49,-99.99,,,-99.99,,2013-01-14 06:32:00,
2013-01-13 22:42:00,26.0,9.0,-100.00,SE,124,2.0,4.0,49,-99.99,,,-99.99,,2013-01-14 06:42:00,
2013-01-13 22:52:00,26.0,10.0,-100.00,SE,144,2.0,4.0,50,-99.99,,,-99.99,,2013-01-14 06:52:00,
2013-01-13 23:02:00,26.0,10.0,-100.00,East,84,3.0,8.0,50,-99.99,,,-99.99,,2013-01-14 07:02:00,
2013-01-13 23:12:00,26.0,9.0,-100.00,SE,125,1.0,5.0,49,-99.99,,,-99.99,,2013-01-14 07:12:00,
2013-01-13 23:22:00,26.0,9.0,-100.00,NE,49,4.0,18.0,47,-99.99,,,-99.99,,2013-01-14 07:22:00,
2013-01-13 23:32:00,27.0,9.0,-100.00,ENE,59,12.0,19.0,45,-99.99,,,-99.99,,2013-01-14 07:32:00,
2013-01-13 23:42:00,27.0,9.0,-100.00,ENE,59,12.0,19.0,45,-99.99,,,-99.99,,2013-01-14 07:42:00,
2013-01-13 23:52:00,26.0,9.0,-100.00,ENE,75,13.0,22.0,49,-99.99,,,-99.99,,2013-01-14 07:52:00,